Regional Weather Roundup
Issued by NWS

Home | Current Version | Previous Version | Graphics & Text | Print | Product List | Glossary On
Versions: 1 2 3 4 5 6 7 8 9 10 11 12 13 14 15 16 17 18 19 20 21 22 23 24 25 26 27 28 29 30 31 32 33 34 35 36 37 38 39 40 41 42 43 44 45 46 47 48 49 50
000
ASUS43 KDTX 200810
RWRMI
MICHIGAN HOURLY REGIONAL WEATHER ROUNDUP
NATIONAL WEATHER SERVICE DETROIT/PONTIAC MI
ISSUED BY NATIONAL WEATHER SERVICE GRAND RAPIDS MI
300 AM EST MON FEB 20 2017

NOTE: "FAIR" INDICATES FEW OR NO CLOUDS BELOW 12,000 FEET WITH NO
SIGNIFICANT WEATHER AND/OR OBSTRUCTION TO VISIBILITY.

MIZ047>049-052>055-059>063-066>070-074>076-081>083-200900-
SOUTHEAST LOWER MICHIGAN

CITY           SKY/WX    TMP DP  RH WIND       PRES   REMARKS
ADRIAN         PTCLDY    37  32  82 NE5       30.20R WCI  33
ALMA           CLOUDY    32  29  90 E3        30.22R
ANN ARBOR      CLOUDY    34  29  82 N5        30.20R WCI  30
BAD AXE        CLOUDY    27  25  92 CALM      30.23R
DETROIT CITY   CLOUDY    35  30  82 N3        30.22R
DETROIT        CLOUDY    38  30  73 N3        30.22R
FLINT          CLOUDY    34  29  82 CALM      30.22R
GROSSE ILE     CLOUDY    36  31  82 NE6       30.20S WCI  31
HILLSDALE      PTCLDY    41  30  65 SE6       30.17S
HOWELL         CLOUDY    36  29  77 CALM      30.20S

CITY           SKY/WX    TMP DP  RH WIND       PRES   REMARKS
JACKSON        PTCLDY    38  29  70 E3        30.19R
LANSING        PTCLDY    33  27  78 E7        30.20R WCI  27
MASON          CLOUDY    38  32  77 E3        30.21R
MONROE         CLOUDY    38  33  81 N3        30.20R
MT. CLEMENS    CLOUDY    32  30  95 CALM      30.21R
PONTIAC        CLOUDY    32  27  81 CALM      30.20R
PORT HOPE        N/A     31  28  89 W5        30.21R WCI  26
PORT HURON     CLOUDY    27  27 100 CALM      30.22S
TRI CITIES     PTCLDY    35  30  82 CALM      30.24R
YPSILANTI      CLOUDY    35  30  82 N5        30.21R WCI  31
$$
MIZ043>046-050>051-056>058-064>065-071>073-077>080-200900-
SOUTHWEST LOWER MICHIGAN

CITY           SKY/WX    TMP DP  RH WIND       PRES   REMARKS
BATTLE CREEK   PTCLDY    36  30  79 CALM      30.18R
BENTON HARBOR  CLOUDY    35  29  78 CALM      30.15S
BIG RAPIDS     CLOUDY    30  27  86 CALM      30.19R
COLDWATER      PTCLDY    33  31  90 CALM      30.17S
HOLLAND        CLOUDY    35  31  85 E5        30.17R WCI  31
GRAND RAPIDS   CLOUDY    37  27  67 E5        30.18R WCI  33
KALAMAZOO      PTCLDY    35  27  72 S3        30.18R
MARSHALL       PTCLDY    33  30  86 CALM      30.17S
MOUNT PLEASANT CLOUDY    32  29  89 CALM      30.22R
MUSKEGON       PTCLDY    37  28  70 E5        30.18R WCI  33
STURGIS        CLOUDY    37  29  70 CALM      30.16R
$$
MIZ016>042-200900-
NORTHERN LOWER MICHIGAN

CITY           SKY/WX    TMP DP  RH WIND       PRES   REMARKS
ALPENA         PTCLDY    27  26  96 CALM      30.25R
BEAVER ISLAND  CLOUDY    33  30  88 E8        30.22R WCI  26
BELLAIRE       CLOUDY    29  28  95 CALM      30.22R
CADILLAC       CLOUDY    29  26  86 CALM      30.18R
CHARLEVOIX     CLOUDY    32  29  90 SE6       30.24S WCI  26
GAYLORD        CLOUDY    31  25  78 CALM      30.20R
HOUGHTON LAKE  PTCLDY    28  25  88 E3        30.21S
MANISTEE       CLOUDY    31  28  89 E6        30.17S WCI  25
OSCODA         CLOUDY    26  23  88 CALM      30.23R
PELLSTON       CLOUDY    27  23  85 CALM      30.23S
TRAVERSE CITY  PTCLDY    30  27  88 CALM      30.20R
LUDINGTON      CLOUDY    32  28  86 E6        30.17R WCI  26
$$
MIZ007>008-015-200900-
EASTERN UPPER MICHIGAN

CITY           SKY/WX    TMP DP  RH WIND       PRES   REMARKS
KINROSS        CLOUDY    33  28  81 E9        30.24R WCI  25
MACKINAC ISLAN PTCLDY    32  28  86 E10       30.22S WCI  24
NEWBERRY       CLOUDY    29  28  96 E6        30.21R WCI  23
S. S. MARIE    MOCLDY    31  27  85 E5        30.24R WCI  26
$$
MIZ004>006-011>014-085-200900-
CENTRAL UPPER MICHIGAN

CITY           SKY/WX    TMP DP  RH WIND       PRES   REMARKS
MANISTIQUE     MOCLDY    32  30  93 E5        30.20R WCI  27
ESCANABA       CLOUDY    29  28  96 CALM      30.19R
MENOMINEE      CLOUDY    29  27  92 CALM      30.17S
SAWYER-GWINN   MOCLDY    32  28  85 S5        30.16R WCI  28
$$
MIZ001>003-009>011-084-200900-
WESTERN UPPER MICHIGAN

CITY           SKY/WX    TMP DP  RH WIND       PRES   REMARKS
IRON MOUNTAIN  PTCLDY    33  27  78 CALM      30.13S
HOUGHTON       CLOUDY    34  29  82 E9        30.11R WCI  27
COPPER HARBOR    N/A     36  31  82 S10G20    30.13R WCI  28
IRONWOOD       CLOUDY    44  32  62 SE10      30.01S
$$

ABBREVIATIONS USED IN REMARKS
   TC - TEMPERATURE IN CELSIUS
  WCI - WIND CHILL INDEX
   HX - HEAT INDEX
  VSB - VISIBILITY





USA.gov is the U.S. government's official web portal to all federal, state and local government web resources and services.